Location: Unspecified
(0.0000°N, 0.0000°E)
Time: 01:25:37
(UTC+00:00)

deb Kosmos-1275 - Pass Details

Date: 06 March 2026
Orbit: 924 x 993 km, 82.9° (Epoch: 14 April)

Event Time Altitude Azimuth Distance (km) Brightness Sun altitude
Rises 20:08:18 0° 323° (NW) 3,611 ? -29.1°
Reaches altitude 10° 20:11:50 10° 302° (WNW) 2,683 ? -30.0°
Maximum altitude 20:15:21 16° 266° (W) 2,303 ? -30.9°
Drops below altitude 10° 20:18:55 10° 231° (SW) 2,716 ? -31.8°
Sets 20:22:34 0° 210° (SSW) 3,679 ? -32.7°
